User: anonymous   Login
Location: Unspecified
(0.0000°N, 0.0000°E)
Time: 04:31:54
(UTC+00:00)
Language:

SO-67 - Orbit

View from above orbital plane
View from above orbital plane
View from above satellite
View from above satellite

Ground track
Ground track

The orbit data is extracted from the following two-line orbital elements,

1 35870U 09049F   16237.86430705  .00005301  00000-0  97603-4 0  9995
2 35870  97.1176 251.8127 0003003  82.1162  40.5536 15.49594880387271
Epoch (UTC): 24 August 2016 20:44:36
Eccentricity: 0.0003003
inclination: 97.1176°
perigee height: 416 km
apogee height: 420 km
right ascension of ascending node: 251.8127°
argument of perigee: 82.1162°
revolutions per day: 15.49594880
mean anomaly at epoch: 40.5536°
orbit number at epoch: 38727

The dashed part of the orbit path shows where the satellite is in the earth's shadow,  

DLR